RH
43 45 48 49 50 51 52 52 52 52 52 53 54 55 56 58 59 59 60 61 62 62 62 62 61 61 61 62 63 66 71 77 84 90 96 100 100 100 100 100 100 100 100 100 100 100 100 99 99 98 96 96 95 97 99 101 101 100 100 100 100 100 100 99 101 94 80 76 79 79 84 89 87 87 90 88 85 85 84 81 79 78 76 75 74
46 48 49 50 52 53 54 54 54 54 54 54 55 56 58 59 60 60 61 64 66 67 69 70 70 70 70 69 67 66 65 68 72 78 85 92 96 99 100 100 100 100 100 100 100 100 100 100 100 99 99 98 98 98 100 100 101 100 100 100 99 100 101 99 100 100 89 78 77 79 82 87 86 84 88 89 84 83 85 83 82 82 82 81 80
51 51 51 50 50 49 50 50 50 50 50 51 52 54 56 57 58 59 60 62 65 67 70 73 76 79 82 83 82 80 78 75 75 76 79 84 89 94 98 100 100 100 100 100 100 100 100 100 100 100 100 100 100 100 100 100 100 100 100 100 100 100 100 100 99 100 96 85 79 80 82 85 86 82 83 87 86 84 86 87 87 87 88 88 87
50 50 49 49 48 47 47 46 45 45 44 44 45 46 47 48 50 51 52 55 58 61 65 68 72 76 81 86 90 93 93 92 91 89 87 87 88 92 97 100 101 101 101 101 101 101 101 101 100 100 100 100 100 100 100 100 100 100 100 100 100 100 99 101 100 99 100 94 84 83 86 88 89 87 86 88 89 88 89 90 90 90 91 91 90
48 47 44 41 38 35 32 30 28 26 25 24 23 23 23 24 25 26 28 30 34 38 44 50 57 63 69 75 81 86 90 93 96 97 98 98 97 97 100 101 101 101 100 100 100 100 100 100 100 100 100 100 100 100 100 100 100 100 101 100 100 100 100 100 101 99 101 99 90 85 86 89 92 92 91 91 91 91 90 90 90 89 88 87 86
39 32 26 20 16 13 11 10 9 8 7 7 7 7 7 7 7 7 8 9 10 11 14 18 24 31 39 48 57 65 72 78 83 87 91 94 96 98 99 100 101 101 101 101 101 101 100 100 100 100 100 100 100 100 100 100 100 100 100 100 100 100 100 100 100 100 100 101 96 88 85 86 90 91 91 92 93 90 88 87 87 87 87 85 84
18 12 8 6 6 6 6 6 6 6 6 6 6 6 6 6 6 6 6 6 6 6 6 6 7 8 11 16 22 30 39 49 58 66 72 77 81 85 88 90 92 94 95 97 98 99 100 100 101 100 101 101 101 101 100 100 100 100 100 100 100 100 100 100 100 100 100 100 100 96 91 88 90 92 91 91 94 94 92 90 87 86 87 87 84
6 6 6 7 7 7 8 8 8 8 8 7 7 7 7 7 7 7 8 8 8 8 8 8 8 8 8 8 8 9 12 17 24 32 41 49 57 63 67 72 76 79 82 84 87 89 91 93 95 96 97 99 100 100 101 101 102 101 100 101 100 100 100 100 100 100 101 100 100 100 98 94 92 91 91 92 94 96 98 99 93 85 84 86 84
7 8 8 9 9 9 9 9 9 8 9 8 8 8 8 9 9 9 9 9 9 10 10 9 10 10 10 10 10 11 10 11 12 14 18 24 30 37 42 48 54 59 63 68 72 76 79 82 84 87 89 91 93 95 97 98 100 101 101 101 102 101 101 100 100 100 100 100 100 100 101 99 95 93 94 96 98 99 100 102 99 92 86 85 83
9 10 10 9 9 9 9 9 8 8 9 9 9 9 9 10 11 11 12 13 14 14 14 14 15 14 14 14 14 14 15 16 17 19 21 23 26 28 30 34 39 43 46 51 56 61 67 71 74 78 81 83 86 89 91 94 97 99 100 101 101 103 102 101 102 102 101 102 101 101 102 101 98 96 96 96 98 99 98 98 98 94 90 86 81
10 10 10 9 9 9 9 9 9 9 9 10 10 11 11 12 13 14 15 18 20 21 22 23 24 24 24 23 22 23 23 24 25 27 30 34 37 37 37 36 37 39 40 42 45 50 56 62 66 71 76 79 83 87 89 92 93 95 98 99 101 101 100 99 99 100 102 101 100 99 100 99 96 94 93 91 92 94 94 94 94 91 87 85 81
10 10 9 9 9 9 9 9 10 10 10 11 12 13 14 14 15 17 18 20 23 24 27 29 30 33 34 33 33 33 33 34 35 37 38 42 46 49 49 46 42 40 40 40 43 48 53 59 65 70 73 76 79 82 85 87 89 92 93 96 98 99 99 98 97 97 98 98 97 96 96 95 93 90 89 88 89 90 90 88 87 86 83 81 78
11 10 10 10 10 10 11 11 12 13 14 15 16 17 18 18 19 20 21 22 24 25 27 28 30 32 33 34 35 36 37 40 41 43 45 47 49 54 55 52 47 43 42 44 47 50 54 58 62 66 70 73 75 77 79 81 83 86 87 89 91 92 93 94 93 93 93 93 93 92 92 93 92 88 86 86 86 85 83 81 79 77 75 73 72
11 11 11 12 12 12 13 13 14 16 17 20 21 22 23 23 23 25 25 26 26 27 28 29 30 31 32 32 32 32 35 38 40 43 47 49 52 56 57 53 49 47 48 50 51 51 53 54 55 56 60 65 68 70 72 74 75 77 79 79 79 80 81 82 83 83 83 83 83 82 81 81 80 78 77 76 77 76 72 68 65 62 61 60 60
12 12 13 15 15 16 16 17 18 19 21 23 24 25 26 26 27 29 30 30 31 32 34 35 35 36 37 37 36 35 36 38 39 41 44 48 53 57 57 54 52 52 52 53 54 53 54 55 53 52 52 54 57 61 63 65 66 68 70 71 72 72 71 70 71 72 72 74 74 72 69 68 69 70 68 66 68 68 65 60 54 51 51 52 51
15 16 17 18 18 18 19 19 21 22 23 25 25 26 27 27 28 30 30 31 32 34 35 37 39 40 42 44 44 43 44 47 48 48 49 53 60 62 60 57 56 55 55 56 59 59 59 59 57 56 55 54 56 59 61 62 64 66 67 69 71 71 69 66 67 67 68 69 69 68 66 65 67 68 66 62 61 61 59 54 49 49 52 51 49
17 18 19 20 21 22 24 25 27 28 30 31 32 32 33 34 34 35 35 35 35 36 36 37 38 39 40 43 44 44 46 50 54 55 57 63 68 70 67 65 64 63 62 64 66 64 63 63 63 64 63 61 61 64 67 69 71 71 69 68 69 69 67 66 66 65 65 65 65 64 63 62 63 62 60 58 57 57 57 50 46 51 57 55 50
20 22 24 27 28 30 32 33 34 35 36 38 38 39 40 41 42 43 44 43 43 45 45 44 44 45 44 44 45 44 44 47 51 53 56 63 68 70 69 68 68 68 68 69 69 68 67 67 68 69 66 63 64 66 68 72 73 72 69 66 63 62 60 61 60 57 57 56 56 57 56 56 57 55 53 53 52 55 58 54 51 55 61 64 64
28 29 31 32 33 34 35 35 36 37 37 38 39 40 41 42 44 45 47 48 49 50 52 52 52 53 54 54 53 52 50 49 51 53 55 60 66 70 69 66 64 65 65 65 64 65 66 66 67 67 63 62 63 62 66 74 75 72 68 63 61 62 59 55 53 49 48 48 48 48 48 47 48 48 48 49 49 53 61 65 64 63 65 72 76
31 32 32 32 33 34 35 36 37 38 39 40 40 41 42 42 44 46 48 50 52 53 55 57 58 59 62 64 64 64 63 59 58 59 59 61 68 74 74 68 65 65 63 61 60 60 60 61 61 60 59 59 58 58 70 86 84 74 71 74 76 74 61 51 51 50 47 47 45 44 43 43 47 48 49 50 51 56 65 72 74 75 76 78 75
31 32 33 34 35 36 37 39 39 41 42 43 42 43 44 46 47 49 51 54 56 56 58 62 63 64 67 70 71 73 75 72 70 69 68 67 71 77 76 71 70 70 67 65 63 58 56 56 55 56 57 59 60 66 81 94 87 75 80 90 91 80 63 56 57 56 52 51 50 50 50 52 53 54 54 55 56 60 67 71 75 80 84 83 75
33 34 35 36 37 38 40 42 44 45 46 48 48 48 51 54 55 57 59 60 62 63 65 67 68 67 70 75 77 80 82 83 82 80 80 79 79 82 81 76 75 76 72 69 66 61 60 59 58 60 61 63 72 81 85 86 82 80 89 95 90 79 71 68 67 64 63 64 63 62 62 61 59 58 58 58 59 61 63 65 69 77 83 86 85
35 36 38 40 42 44 45 47 49 51 52 54 55 54 57 59 61 63 65 67 68 70 72 73 73 73 74 78 83 87 89 91 92 91 92 91 90 92 92 85 82 82 79 75 73 70 69 69 68 69 68 71 83 90 85 82 85 88 93 95 91 87 84 83 81 79 79 77 72 69 67 65 63 61 60 60 60 60 61 61 64 72 78 82 87
39 41 43 45 47 48 50 51 53 55 55 56 57 58 60 61 63 66 68 71 72 74 75 77 77 78 80 82 87 92 96 96 98 99 99 99 98 100 101 96 92 91 88 86 83 79 77 78 78 75 73 77 85 89 86 87 90 91 92 94 94 94 93 91 90 87 83 79 75 71 70 69 67 65 63 63 62 61 60 61 65 70 75 78 81
41 43 45 47 49 50 52 54 55 56 57 58 58 59 61 62 64 67 71 74 76 77 77 79 80 82 86 88 91 95 98 99 100 102 103 103 103 104 106 105 102 101 98 95 94 91 88 88 87 82 78 80 83 85 87 90 91 91 90 89 88 88 88 87 85 84 81 78 75 72 70 71 70 69 68 67 65 63 62 64 67 70 73 75 76
43 45 47 49 51 52 52 54 55 56 57 58 59 60 61 62 63 66 69 73 76 79 80 81 84 87 92 95 95 95 97 98 100 103 104 105 106 107 108 108 107 106 105 104 104 103 100 98 98 94 89 87 85 85 87 89 91 93 93 91 89 88 87 84 83 82 80 76 73 70 70 72 72 71 72 70 69 69 70 69 68 69 71 73 73
45 47 49 50 51 52 52 53 55 56 57 58 58 59 60 61 61 63 66 70 73 77 81 84 90 95 99 100 98 95 95 97 99 101 103 103 104 104 106 108 107 106 107 106 106 107 107 106 105 103 99 96 94 92 91 91 92 93 92 91 90 88 86 85 83 81 77 74 72 70 71 72 72 71 72 73 73 75 76 72 68 67 68 69 68
48 49 50 51 52 54 55 56 56 56 55 54 54 55 56 58 60 62 66 69 72 76 80 85 93 99 100 99 96 93 93 94 95 96 98 100 102 102 104 107 106 104 105 105 104 105 107 107 106 105 102 101 101 101 100 98 96 94 91 88 85 83 82 81 79 77 75 72 69 68 68 69 71 71 71 73 74 76 76 73 70 67 66 65 64
50 52 52 54 56 57 57 57 55 53 51 50 51 53 55 58 60 62 67 73 77 81 85 88 92 95 96 95 94 92 89 89 91 93 96 101 104 102 101 102 104 105 105 104 103 104 104 102 101 100 99 101 104 106 106 104 101 99 94 88 84 80 79 77 75 75 74 71 68 66 67 68 70 70 71 72 74 75 75 73 71 68 67 65 63
52 54 55 57 58 57 56 55 52 50 49 49 49 52 55 59 63 65 68 74 82 89 94 95 97 98 97 95 94 93 90 89 91 94 95 97 99 99 99 101 103 105 106 104 104 104 101 96 94 94 96 99 103 107 107 106 104 102 96 90 86 82 80 79 77 76 74 71 68 67 69 70 70 70 72 73 74 76 76 73 71 68 66 65 65
55 57 57 58 58 57 55 53 50 49 50 50 50 51 53 59 66 73 76 79 86 93 99 102 104 105 103 100 98 97 97 97 96 94 91 93 98 101 103 104 105 105 104 102 100 99 96 91 90 92 94 98 101 105 107 108 107 103 96 91 89 87 85 84 82 79 76 72 71 71 71 72 70 70 72 74 74 75 76 73 70 67 65 68 73
56 57 58 59 58 56 54 52 51 51 51 52 54 54 55 59 67 77 85 89 93 98 101 104 105 105 105 105 103 102 102 101 99 96 96 99 103 102 101 103 106 106 101 95 91 90 88 87 87 90 93 96 100 104 106 106 105 101 94 90 89 90 89 87 84 81 78 74 73 73 73 72 71 71 73 75 74 74 73 70 67 68 73 80 85
58 59 60 59 58 57 55 53 53 54 54 55 56 58 60 63 68 75 84 93 100 104 103 101 100 100 101 103 103 103 103 102 101 101 103 106 105 101 100 104 107 106 102 98 95 93 92 92 93 96 99 101 102 104 105 103 99 95 90 87 86 88 89 87 83 80 78 74 72 73 73 73 73 73 74 76 75 73 70 67 68 77 86 91 92
60 61 61 61 59 58 56 56 56 56 57 58 60 62 64 67 70 74 80 87 96 103 104 102 100 98 98 100 102 104 105 106 105 105 106 107 105 102 103 107 108 106 105 105 104 104 103 104 106 105 104 103 101 101 101 99 95 91 88 86 86 87 87 86 82 78 75 73 72 73 73 73 74 74 76 77 76 72 68 70 78 90 97 96 94
61 62 62 62 61 60 60 59 59 59 60 61 64 66 68 70 73 76 78 81 87 94 100 104 105 104 102 103 106 108 108 106 105 106 107 107 105 104 104 106 106 106 107 107 106 105 105 106 106 104 101 100 99 98 98 95 92 89 88 87 88 88 87 84 80 75 72 73 74 74 74 74 75 76 76 75 74 72 74 81 91 98 100 98 96
61 62 63 63 63 63 63 63 63 63 63 64 66 69 72 74 76 78 81 82 84 88 93 98 101 103 101 101 104 108 108 106 105 106 107 106 104 104 104 104 103 104 105 106 106 105 103 101 100 99 98 98 99 98 96 94 92 92 92 90 90 89 87 83 78 74 73 75 75 74 75 77 78 78 76 73 73 76 84 92 99 103 102 99 97
61 62 62 64 65 65 66 68 68 68 68 68 70 72 74 77 79 80 82 83 85 87 90 92 96 100 101 99 100 103 106 105 103 104 105 105 104 103 102 103 104 105 106 107 107 106 105 103 100 99 99 99 98 97 96 95 95 95 94 92 89 87 84 79 75 74 75 76 76 77 78 79 80 78 74 74 78 86 92 96 102 107 107 101 96
64 63 64 66 66 66 69 71 72 72 73 74 75 76 77 78 80 81 83 84 84 86 89 90 91 95 99 100 101 101 102 102 101 102 103 103 103 103 103 104 105 106 108 110 109 107 106 105 103 101 100 99 98 98 97 97 96 95 92 90 87 82 78 75 74 75 76 77 79 81 81 81 79 77 74 78 88 96 99 99 103 106 105 99 94
69 69 69 68 67 68 71 72 73 75 77 78 79 81 81 82 84 85 86 86 87 88 90 91 91 92 94 97 99 100 99 99 99 100 101 100 100 101 102 103 104 105 105 106 105 103 102 103 102 100 99 97 96 96 96 96 94 91 87 84 80 77 76 75 77 78 79 80 82 83 83 82 80 78 79 85 94 99 101 101 103 105 103 99 96
73 74 73 71 70 71 72 72 74 76 78 79 81 84 85 86 88 89 90 91 91 92 92 93 94 94 94 95 97 98 98 98 98 98 99 99 99 99 99 100 101 101 100 99 98 97 96 96 94 93 93 93 93 93 92 90 87 83 80 77 78 80 82 82 83 84 85 85 85 84 84 84 84 85 88 93 97 100 102 102 103 103 102 100 99
74 75 74 73 73 74 74 74 75 77 79 81 83 85 88 89 91 93 94 95 96 96 97 97 98 98 98 98 99 99 99 100 100 100 101 101 100 100 100 101 101 101 100 99 98 96 94 92 90 89 88 87 87 85 83 81 79 80 81 83 85 88 90 89 89 90 91 91 91 92 92 92 94 97 98 98 99 101 101 101 101 101 100 99 98
71 71 72 72 73 73 74 74 75 77 80 82 83 84 86 88 92 95 98 99 100 100 100 100 101 102 103 104 105 105 105 106 107 107 108 109 110 110 110 109 108 107 105 103 101 98 95 92 90 88 87 85 84 84 83 84 86 89 92 94 95 97 98 98 98 98 98 99 100 101 102 104 105 106 104 101 101 102 101 100 100 100 99 98 97
69 70 72 73 73 73 75 76 77 79 81 83 85 87 89 91 93 96 98 100 102 103 102 103 104 106 107 108 108 108 109 110 111 112 112 113 113 112 111 110 108 107 105 103 102 100 97 94 93 94 94 95 95 95 96 98 100 101 101 102 102 102 102 103 102 101 101 102 102 103 105 107 108 108 106 103 102 102 101 100 100 100 99 99 99
69 71 73 73 74 76 78 80 82 83 84 85 88 91 94 95 96 97 98 101 104 105 105 105 107 108 109 110 110 110 110 111 111 112 112 112 111 111 111 110 110 108 108 107 106 106 106 106 106 106 107 107 106 106 105 105 104 103 103 102 102 101 101 101 101 101 101 102 103 102 102 103 104 104 105 104 103 102 100 100 100 100 100 99 100
71 73 74 74 76 78 79 81 83 85 86 89 90 91 93 95 96 98 99 101 103 104 105 105 107 108 109 110 110 110 111 111 111 111 111 111 111 111 110 110 108 107 108 110 110 110 111 111 110 108 107 106 104 103 102 102 101 101 101 101 101 102 102 101 101 101 101 102 104 103 102 103 104 104 104 103 102 101 100 100 99 100 100 100 100
73 74 76 77 79 80 82 84 86 87 90 92 93 94 96 97 97 99 99 100 101 102 103 104 105 105 105 106 106 106 106 105 105 105 105 104 104 104 103 103 103 102 103 105 106 105 104 103 103 102 101 101 101 100 100 100 100 100 101 102 102 104 104 104 103 102 101 101 103 103 102 102 101 101 100 100 100 100 100 100 99 99 100 100 100
75 77 79 80 82 83 85 87 89 91 93 94 95 95 96 97 97 96 96 96 97 98 98 99 100 100 100 101 101 101 101 101 101 101 101 100 100 101 101 101 101 101 101 101 101 101 100 100 100 100 100 100 100 100 100 100 101 101 102 103 103 103 104 105 104 103 101 99 98 98 97 97 97 96 97 98 99 99 100 100 99 99 100 100 101
78 79 81 82 84 86 87 88 89 90 91 91 91 91 92 93 94 94 94 95 96 96 96 97 98 98 99 100 100 100 100 100 100 100 100 100 100 100 100 100 100 100 100 100 100 100 100 100 100 100 100 100 100 100 100 100 101 101 101 102 102 101 102 104 105 105 104 102 100 99 97 97 97 98 98 99 100 100 101 101 102 102 102 103 104
79 80 81 82 83 84 84 84 85 86 86 87 88 89 90 91 93 94 95 96 97 97 99 99 99 99 100 100 100 100 101 100 100 100 100 100 100 100 100 100 100 100 100 100 100 100 100 100 100 100 100 100 100 100 100 100 100 100 100 101 100 100 101 102 103 104 105 106 105 103 102 101 100 100 101 102 101 102 103 103 103 103 103 102 102
78 79 80 80 81 82 82 83 83 85 86 88 89 91 92 93 95 96 96 97 98 99 99 100 100 100 100 100 100 100 100 100 100 100 100 100 100 100 100 100 100 100 100 100 100 100 100 100 100 100 100 100 100 100 100 100 100 100 100 100 100 100 100 100 100 101 102 103 103 103 102 102 102 101 102 102 101 101 102 102 101 101 101 100 100
78 79 80 81 82 83 85 86 87 88 90 91 92 94 95 96 97 97 98 98 99 99 99 99 99 100 100 100 100 100 100 100 100 100 100 100 100 100 100 100 100 100 100 100 100 100 100 100 100 100 100 100 100 100 100 100 100 100 100 100 100 100 100 100 100 101 101 101 101 101 101 101 101 101 101 101 101 101 101 101 101 100 100 100 100
Wind_Speed
31 31 31 32 33 34 35 36 37 38 39 40 41 42 42 42 43 43 44 44 44 45 45 46 46 47 47 48 49 50 51 52 54 55 57 59 61 62 63 64 64 65 65 66 66 68 69 69 69 68 67 66 65 64 64 64 64 64 63 64 64 63 64 65 67 69 69 68 69 70 70 69 69 68 67 67 66 65 65 64 64 64 63 63 63
33 34 35 35 37 38 39 41 42 44 45 46 46 47 47 47 48 48 49 49 49 50 50 50 50 51 51 51 52 53 54 54 55 56 57 58 60 62 64 66 67 68 68 69 69 68 68 67 67 66 65 64 63 63 63 63 63 63 62 62 62 62 62 62 64 65 66 66 66 66 67 66 66 65 65 65 65 65 65 64 64 64 64 64 64
36 38 40 41 43 44 45 47 48 49 50 51 51 51 51 51 52 52 53 53 53 54 54 54 54 54 54 55 55 56 57 57 58 58 59 59 60 61 62 63 64 65 66 66 66 65 64 63 63 62 62 61 61 61 61 62 62 62 62 62 62 62 62 62 63 65 66 66 65 65 66 66 66 65 65 66 65 65 66 66 65 66 66 66 66
42 44 46 47 49 51 52 53 54 55 56 56 57 57 57 58 58 58 58 58 58 58 58 58 58 58 58 58 58 59 59 60 61 61 62 62 63 63 63 63 63 64 64 65 65 64 64 64 63 63 62 62 62 62 62 62 63 63 64 63 64 64 64 65 66 66 67 68 66 65 66 67 67 66 66 67 67 67 68 68 68 68 68 68 69
48 50 51 52 54 55 56 57 58 58 58 58 59 59 59 60 61 62 62 63 63 63 63 63 63 63 63 62 62 62 62 63 63 64 64 65 66 67 67 67 67 67 67 67 67 67 67 66 66 65 65 65 65 64 64 65 65 66 66 66 66 67 67 67 68 68 68 69 69 68 68 69 69 68 67 68 68 68 69 70 70 70 70 70 70
55 56 56 55 55 55 55 56 56 56 56 56 57 57 57 58 59 60 61 62 62 63 64 65 66 67 67 67 67 67 66 66 66 66 66 67 67 68 69 69 70 70 69 69 69 69 68 68 68 67 67 67 67 66 66 66 66 67 67 67 68 68 69 69 68 68 69 70 70 70 70 70 71 70 69 69 70 70 70 70 70 70 70 71 71
59 58 57 56 55 55 55 54 54 54 55 55 56 56 56 57 57 58 59 60 60 61 62 63 64 65 67 68 69 70 70 70 69 69 68 68 68 69 69 70 71 71 71 71 70 70 70 69 69 69 68 68 67 67 66 66 67 67 67 67 68 68 69 69 69 69 69 70 70 71 71 71 71 71 70 70 70 71 71 71 72 71 71 72 72
57 57 56 56 56 56 56 55 55 56 56 56 56 56 57 57 57 57 57 58 59 60 61 61 62 62 63 65 66 67 68 69 69 69 69 68 68 68 69 70 70 71 71 71 71 70 70 70 70 69 69 68 67 66 66 66 67 67 67 67 67 68 68 68 68 69 69 70 70 70 70 70 70 71 71 71 71 71 71 71 73 73 73 73 73
56 56 56 56 57 56 56 56 57 57 57 58 58 58 57 57 57 57 57 57 57 58 59 60 60 61 61 62 62 63 64 65 65 66 65 65 65 65 66 66 67 67 68 68 69 69 69 69 69 68 68 67 66 66 66 66 66 67 67 67 67 67 68 68 68 68 69 69 69 69 70 70 70 70 71 71 71 71 71 71 72 73 73 74 74
56 55 56 56 56 56 55 56 56 57 57 57 58 58 58 58 58 58 57 56 56 56 56 56 57 58 58 59 59 60 61 61 61 61 61 61 61 62 62 62 62 63 63 64 65 65 66 66 65 65 64 64 64 64 64 64 64 65 65 65 66 66 66 67 67 67 68 68 68 68 69 69 69 69 69 70 69 69 69 69 69 70 70 72 73
55 55 56 56 56 55 55 56 56 56 57 57 57 57 58 58 58 57 57 56 55 55 54 54 54 54 55 55 55 56 56 57 57 57 56 56 57 58 58 59 59 60 61 61 61 61 60 59 59 59 60 60 60 60 61 61 62 62 62 62 63 63 64 65 65 65 65 66 66 66 67 67 67 66 67 67 66 66 66 65 66 67 67 68 70
55 55 56 56 55 55 56 55 55 55 55 55 55 55 56 56 56 56 55 55 55 54 53 53 52 52 52 52 52 52 52 52 52 52 52 52 52 53 55 56 57 58 58 58 58 57 56 55 54 54 55 56 57 57 58 58 59 59 60 60 60 60 60 61 62 62 62 63 63 63 63 63 63 63 63 63 63 62 62 63 63 63 64 65 67
56 56 56 55 55 55 54 54 54 53 53 53 53 53 53 53 53 53 53 53 53 53 52 52 52 51 51 51 51 50 49 49 48 48 48 49 49 50 52 54 55 56 56 54 53 53 53 53 52 52 51 52 53 54 54 55 55 56 56 57 57 57 57 57 58 59 59 59 60 60 59 59 60 60 59 59 59 60 60 61 60 60 62 63 64
56 56 55 54 53 53 53 52 52 51 51 50 50 50 50 51 51 51 51 52 52 52 51 51 51 51 51 51 50 50 49 48 47 46 46 46 46 48 50 52 53 53 52 51 51 51 51 51 51 50 49 49 50 50 51 52 53 53 54 54 55 54 54 54 54 55 56 56 57 58 57 56 57 57 56 55 56 57 58 60 61 61 62 63 64
55 54 53 52 51 51 50 50 50 49 49 49 49 49 50 50 50 51 51 51 51 51 51 51 51 51 50 50 50 49 48 47 47 46 46 45 46 47 49 50 50 50 50 50 50 50 49 49 49 49 48 48 48 48 49 49 50 51 51 51 52 52 53 53 53 54 54 54 55 55 55 55 55 55 54 54 56 57 58 60 61 62 64 64 64
52 51 50 49 49 49 49 49 49 49 49 50 50 50 51 51 51 51 52 52 52 52 52 52 52 52 51 51 51 50 48 48 47 46 45 45 45 46 47 47 48 48 48 48 49 49 49 49 48 47 46 46 46 46 47 47 48 49 49 49 49 50 51 52 53 53 53 54 54 54 54 54 53 54 54 55 56 57 58 59 60 60 62 63 63
49 48 48 48 49 49 50 51 51 51 51 51 52 52 52 52 52 53 53 53 52 52 53 52 52 52 52 52 52 51 50 49 48 47 46 45 46 46 47 46 47 47 47 47 47 48 48 48 47 46 46 46 45 45 45 45 46 47 47 47 48 49 50 51 52 53 53 53 53 53 53 53 54 54 54 55 55 56 57 59 59 58 58 60 61
49 49 49 49 50 50 51 51 52 52 52 52 52 52 53 53 53 53 53 53 53 53 53 52 52 52 52 51 51 51 50 49 49 48 47 46 46 47 47 47 47 47 47 47 47 47 46 46 46 46 46 45 44 43 43 44 45 46 46 47 49 50 51 52 53 53 53 53 53 52 52 53 53 54 54 54 54 54 55 57 58 57 57 57 58
49 49 49 50 50 50 51 51 52 52 52 52 52 53 53 53 53 53 53 53 53 53 53 53 52 51 51 50 50 50 49 48 48 47 47 46 46 46 47 48 49 48 48 48 48 46 46 45 45 45 45 44 43 42 42 42 43 44 45 47 48 49 51 52 53 53 52 52 51 51 51 52 52 52 52 51 52 52 52 53 54 54 56 56 56
48 49 49 50 50 51 51 52 52 53 53 53 53 53 54 54 53 53 53 53 53 53 53 52 52 51 50 50 49 48 48 47 46 45 45 43 43 44 46 47 48 48 49 49 48 47 47 46 45 44 44 43 42 42 39 38 40 43 43 43 45 48 50 51 51 51 51 50 50 50 50 49 49 48 47 47 48 48 48 48 49 50 52 54 54
49 49 50 51 51 52 52 53 53 53 53 54 54 54 54 54 53 53 53 53 53 52 52 52 51 51 50 49 48 47 47 47 46 45 43 42 40 41 43 44 45 46 47 47 48 48 47 45 44 43 43 42 41 40 37 37 40 42 40 40 43 47 50 50 50 50 50 49 49 48 47 46 44 43 43 43 44 44 44 45 45 47 49 50 51
50 51 52 52 52 53 53 53 53 53 53 53 54 54 53 53 53 53 52 52 52 52 51 51 51 50 49 48 47 46 46 46 45 44 43 41 39 39 41 42 42 43 45 46 46 46 44 43 41 40 40 39 37 37 38 39 41 40 39 41 44 47 47 48 48 49 48 47 46 45 43 42 41 40 40 41 41 42 42 43 43 44 46 47 48
52 52 52 53 53 52 53 52 52 52 52 52 53 53 52 52 52 51 51 51 51 51 50 50 50 49 48 47 46 45 45 44 44 43 42 41 39 38 39 41 41 41 43 43 43 42 40 39 38 37 36 34 33 35 38 39 38 37 38 40 43 44 45 45 46 46 45 44 43 42 41 40 39 39 39 39 39 39 40 41 41 42 43 44 45
52 52 52 52 51 51 51 51 50 50 50 50 50 50 50 50 50 50 50 50 50 50 50 49 49 48 47 46 45 44 43 43 43 42 42 41 39 38 39 40 40 40 40 40 40 40 39 37 37 36 34 32 32 34 36 36 36 36 37 38 39 41 42 43 43 43 43 42 41 40 40 39 38 38 38 38 38 37 38 39 40 40 41 41 42
51 51 50 50 49 49 49 48 48 48 48 49 49 49 49 49 49 49 49 49 49 49 49 49 48 47 46 45 44 43 43 42 42 41 40 40 39 38 38 39 39 39 39 39 39 39 39 38 37 37 35 34 34 34 34 35 36 37 37 38 39 40 40 41 41 40 40 39 39 39 39 37 37 37 37 37 36 37 37 38 38 38 38 39 40
49 48 47 47 47 47 47 46 46 46 47 47 48 48 48 49 49 49 49 49 49 49 48 48 47 46 45 44 44 43 42 41 40 39 39 38 38 38 38 38 38 37 38 38 38 39 39 38 37 36 35 35 35 34 34 34 35 35 37 38 39 39 39 38 38 38 38 38 38 38 37 35 35 35 35 35 35 36 36 36 36 36 36 37 38
46 45 45 45 45 45 45 45 45 45 45 45 46 46 46 47 47 47 48 48 48 47 47 46 45 44 43 43 43 43 42 40 39 38 37 37 37 36 35 36 36 36 37 37 37 38 39 38 37 36 35 35 35 35 34 34 34 35 36 37 37 37 36 36 37 37 37 37 37 36 35 34 33 33 33 34 33 33 34 35 35 35 34 35 36
44 44 44 44 44 44 43 43 43 43 44 44 44 44 44 44 45 45 45 45 45 45 44 43 42 42 42 42 42 41 40 39 37 36 35 35 34 33 32 33 35 36 37 36 36 37 38 38 36 35 35 35 34 34 34 34 35 35 35 35 35 34 34 35 35 35 35 35 35 34 32 31 31 32 32 31 31 31 32 33 34 34 34 34 35
42 42 43 43 42 42 41 41 42 42 42 42 42 42 42 42 42 42 42 41 41 41 41 41 40 40 40 40 40 40 39 37 35 33 32 31 32 32 32 32 33 34 35 35 35 37 38 38 36 35 34 33 32 33 33 34 34 35 34 33 32 32 33 33 33 33 33 33 32 31 30 30 30 30 30 30 30 30 30 31 32 33 33 34 34
41 41 41 41 40 40 40 40 40 40 41 41 41 40 40 40 40 40 39 38 37 36 37 37 37 38 38 38 37 37 37 35 32 31 30 29 30 30 30 29 30 31 32 33 35 37 38 36 34 33 32 31 30 31 32 32 33 34 33 32 31 31 32 32 32 32 31 30 30 30 30 30 29 29 30 30 29 29 29 30 31 31 32 32 32
40 40 39 39 39 39 39 39 39 39 39 39 40 40 39 37 36 35 35 34 33 32 32 33 33 34 35 36 35 34 33 33 32 31 29 27 26 26 26 27 27 28 30 34 35 36 36 34 32 30 29 29 29 30 30 32 33 33 32 31 30 31 31 31 32 31 29 29 29 30 30 29 29 29 30 30 29 28 28 29 29 30 30 30 29
39 39 38 38 38 38 37 37 37 37 37 38 38 38 37 35 32 29 28 29 29 28 28 29 29 30 31 31 32 31 30 30 30 29 27 25 24 24 25 25 25 27 31 33 33 33 33 31 30 28 27 27 28 30 31 31 32 31 30 29 29 30 30 30 30 29 29 29 29 29 29 29 29 29 29 29 28 27 26 27 27 28 28 27 26
37 37 37 37 36 36 36 36 35 36 36 36 36 35 35 33 31 27 23 22 23 25 26 26 26 26 26 26 27 28 27 27 27 26 24 23 24 24 22 22 23 26 29 30 30 30 30 28 27 26 25 26 28 29 30 30 30 29 28 28 27 28 28 28 28 28 27 28 28 28 28 28 28 29 28 28 27 27 25 25 25 25 24 23 21
35 35 35 35 35 35 35 34 34 34 34 34 34 33 32 31 30 27 24 20 17 18 20 23 24 24 23 23 23 24 24 24 24 23 22 21 22 21 19 19 21 23 24 24 25 26 26 25 25 24 24 25 27 28 27 27 27 26 26 26 26 26 25 26 26 26 26 26 27 27 27 27 27 27 27 26 26 25 24 24 23 22 21 20 19
33 33 33 33 33 33 33 33 32 32 32 32 32 32 31 29 28 27 25 22 18 16 15 17 19 21 21 20 20 20 20 21 20 20 19 19 19 18 17 16 18 19 20 20 21 21 22 22 23 23 24 24 25 25 24 24 24 24 25 25 24 24 24 24 24 25 25 25 25 25 26 26 26 26 26 24 23 23 22 22 21 19 18 18 17
31 31 31 31 31 31 31 31 31 31 31 31 31 30 29 28 27 25 24 23 20 18 16 15 15 17 18 18 16 16 17 17 17 16 16 17 16 15 14 14 15 15 16 17 18 19 20 21 21 21 21 21 21 22 22 22 22 23 23 23 22 22 23 23 24 24 24 24 24 24 25 25 25 25 24 23 21 21 20 20 19 18 17 16 16
30 30 29 30 30 30 30 30 30 30 30 30 29 29 28 27 26 25 24 22 21 19 18 16 15 14 15 16 15 14 14 14 14 13 13 14 14 13 12 12 12 13 13 14 15 17 18 19 19 18 18 18 19 19 19 20 20 20 21 21 21 22 22 23 23 23 23 23 23 24 24 24 24 24 23 21 20 20 19 18 16 16 16 16 15
30 29 29 29 29 29 29 29 29 29 29 28 28 27 27 26 25 24 23 22 21 20 18 17 15 13 12 13 13 13 13 12 12 12 11 11 11 11 11 10 11 11 12 12 14 14 15 16 17 16 16 16 17 17 17 17 18 18 19 20 20 21 22 22 22 22 21 21 22 23 23 23 23 23 21 19 18 18 18 17 15 15 15 15 15
28 28 28 28 28 28 28 28 28 28 28 27 27 26 26 25 24 24 23 22 21 20 18 17 16 14 13 11 11 11 12 11 11 11 10 10 9 9 9 9 9 9 10 11 12 12 13 14 14 15 15 15 15 15 15 15 16 17 18 18 19 20 20 20 20 20 20 21 21 22 22 22 22 21 20 19 18 17 17 16 15 14 14 15 15
28 27 27 27 27 27 27 27 27 27 26 26 26 26 25 25 24 23 22 22 21 20 19 17 16 15 14 13 11 11 11 11 11 10 10 9 9 8 7 7 7 8 8 9 10 10 11 11 12 12 13 13 13 13 14 14 15 16 16 17 17 18 19 19 19 19 20 20 21 21 21 20 20 20 19 18 17 16 15 15 15 15 14 14 14
27 26 26 26 26 26 26 26 26 26 26 26 26 25 25 24 24 23 22 22 21 20 19 18 17 16 16 15 13 12 11 11 11 10 9 9 9 8 8 7 7 7 7 7 8 8 8 9 9 9 10 10 11 11 12 13 13 14 14 15 16 16 17 18 19 19 19 20 20 20 20 19 19 18 18 17 16 15 15 14 14 14 14 13 14
26 26 26 26 26 25 25 25 26 26 26 25 25 25 24 24 23 23 22 22 21 21 20 19 19 18 17 16 15 14 13 12 12 11 10 10 9 9 8 8 7 7 7 6 6 6 6 6 6 6 7 7 8 9 10 11 11 12 13 14 15 16 17 18 18 18 18 19 19 19 19 18 18 17 17 16 15 14 14 14 13 14 13 13 14
27 27 27 27 26 26 26 26 26 26 26 25 25 25 25 24 24 24 23 22 22 21 20 20 19 19 18 17 16 15 15 14 13 13 12 11 11 10 10 9 9 8 7 7 6 6 6 6 5 5 5 6 7 8 9 10 11 12 13 13 14 14 15 15 16 16 16 16 17 17 16 16 16 15 15 15 13 12 13 13 13 13 13 13 14
28 28 28 27 27 27 27 27 27 27 27 27 26 26 26 25 25 25 24 24 23 22 22 21 21 20 20 19 18 18 17 16 16 15 14 14 13 13 12 11 11 10 9 8 8 7 7 7 7 6 6 6 7 8 9 9 10 10 11 11 12 12 12 12 13 13 14 14 14 14 13 13 13 13 13 12 11 11 12 12 12 12 13 13 13
28 28 28 28 28 28 28 28 28 27 27 27 27 27 26 26 26 26 25 25 24 24 23 23 22 22 21 21 20 19 19 18 17 17 16 15 15 14 13 13 12 11 11 10 10 9 9 9 9 8 8 8 8 8 8 8 8 8 9 9 10 10 10 10 10 11 10 10 10 10 10 10 10 10 9 9 9 9 10 11 11 12 12 13 13
27 27 27 27 27 27 27 27 27 27 27 27 27 26 26 26 26 26 26 25 25 24 24 24 23 22 22 21 21 20 20 19 18 18 17 17 16 16 15 14 14 13 13 12 11 11 11 10 10 10 10 9 9 9 9 9 8 8 8 8 9 9 9 9 9 9 9 8 8 7 6 6 6 5 5 6 7 8 9 10 11 11 12 13 14
26 26 26 26 27 27 27 27 27 27 27 26 26 26 26 26 26 26 26 26 25 25 24 24 23 23 22 22 22 21 21 20 20 19 19 18 18 17 17 16 16 15 14 14 13 13 12 12 12 11 11 11 10 10 10 9 9 9 9 8 8 9 9 9 9 9 8 8 7 7 6 5 4 4 4 5 6 7 8 10 11 11 12 12 13
26 26 26 26 26 26 26 27 27 27 27 27 27 27 27 27 27 27 26 26 26 25 25 25 24 24 23 23 23 22 22 21 21 20 20 19 18 18 17 17 16 16 15 15 14 14 13 12 12 12 11 11 11 10 10 10 9 9 9 9 9 9 9 9 8 8 8 8 8 7 6 6 5 5 5 5 6 7 7 9 10 10 11 11 12
26 26 26 26 27 27 27 27 27 27 27 27 27 27 27 27 27 26 26 26 25 25 25 24 24 23 23 23 22 22 21 21 20 20 19 19 18 18 17 16 16 15 15 15 14 14 13 13 12 12 12 11 11 11 11 10 10 10 10 9 9 9 9 9 9 8 8 8 8 7 7 6 6 6 5 5 6 6 7 8 9 10 10 11 11
27 27 27 27 27 27 27 27 27 27 27 27 26 26 26 26 26 25 25 25 24 24 24 23 23 23 22 22 22 21 21 20 20 20 19 19 18 18 17 17 16 16 15 15 14 14 14 14 13 13 13 12 12 12 11 11 11 11 10 10 10 10 10 9 9 9 8 8 8 7 7 7 6 6 6 6 6 6 6 7 8 8 9 9 10
26 26 26 26 26 26 26 26 26 26 25 25 25 25 25 25 24 24 24 24 24 24 23 23 23 23 22 22 22 21 21 21 20 20 20 19 19 18 18 18 17 16 16 16 15 15 14 14 14 13 13 13 13 12 12 12 12 12 12 11 11 10 10 10 9 9 9 8 8 8 7 7 7 6 6 6 6 6 6 6 7 7 7 8 8
Wind_Direction
286 285 285 286 286 287 288 288 289 289 288 288 288 288 287 286 285 284 282 281 279 278 276 275 274 273 272 271 270 269 268 267 265 264 264 263 263 263 264 264 264 264 265 265 266 267 269 270 270 270 270 270 269 269 269 268 268 267 267 267 266 266 266 266 266 267 266 265 266 266 266 267 266 267 267 266 265 265 265 264 264 264 264 264 264
287 286 286 286 285 286 286 287 288 288 288 288 288 288 287 286 285 285 284 282 281 280 278 276 275 273 271 270 269 268 268 267 266 264 263 262 261 261 261 262 262 263 263 264 264 265 265 266 266 266 266 266 266 266 265 265 265 265 264 264 264 264 264 265 265 266 265 265 264 265 265 265 265 265 265 265 264 264 264 264 263 263 263 263 263
287 286 286 285 285 284 284 283 283 282 282 283 284 284 284 283 283 282 282 281 280 279 277 276 275 273 272 270 269 268 267 266 265 264 264 263 262 261 260 260 261 261 262 262 262 262 263 262 262 262 262 262 262 263 263 263 263 263 263 263 263 262 262 263 263 264 264 264 263 264 264 264 264 264 264 264 264 264 264 265 264 264 264 265 265
288 287 287 287 287 286 285 284 283 282 281 280 280 280 280 279 279 278 278 277 276 276 275 274 273 272 271 270 268 267 266 265 265 264 263 263 263 262 262 261 261 261 261 261 262 262 262 262 262 262 262 262 262 261 261 261 261 262 262 262 262 262 262 262 262 263 263 264 263 263 264 264 264 264 264 264 265 265 265 266 266 266 266 266 266
293 292 291 289 289 288 286 285 284 284 283 282 281 280 279 278 277 276 275 275 274 274 273 273 272 271 270 269 268 267 266 265 264 263 262 262 262 262 262 262 262 261 261 261 262 262 262 262 262 262 262 262 262 261 261 260 260 260 260 260 261 261 261 261 262 263 264 264 264 263 263 264 264 265 265 265 265 265 265 265 266 266 266 266 266
298 296 295 293 292 290 289 288 287 287 286 285 284 282 281 279 278 277 277 276 275 274 273 273 272 271 270 270 269 268 267 266 265 264 263 262 262 262 262 262 262 262 262 262 262 262 262 262 262 262 262 262 261 261 261 261 260 260 260 260 260 260 261 261 262 262 263 264 265 264 264 265 266 266 266 266 266 266 266 266 266 266 267 267 266
300 299 298 297 296 294 293 292 292 290 289 288 287 285 284 283 282 280 279 278 277 276 275 274 273 273 272 271 271 270 269 269 268 268 267 266 264 263 263 262 262 263 263 263 263 263 263 263 263 263 263 263 262 262 262 262 261 261 261 261 261 261 261 261 261 262 262 263 264 264 265 265 266 267 267 268 268 269 269 268 268 267 267 267 267
300 300 300 299 298 298 298 297 296 295 293 292 290 289 288 286 285 283 282 281 279 278 277 276 275 274 274 273 273 272 272 271 270 270 270 270 269 268 266 265 264 264 264 264 264 265 264 264 264 264 264 264 264 264 263 263 262 262 262 262 261 261 261 261 261 261 262 262 263 264 264 264 265 266 267 267 268 268 269 269 269 269 268 268 268
300 300 300 300 299 299 299 298 297 296 296 295 294 293 291 290 288 287 285 284 282 281 279 278 277 276 275 274 274 274 274 274 273 273 273 272 272 271 270 269 268 267 266 265 265 265 265 264 264 265 265 265 265 265 265 264 263 263 262 262 261 261 260 261 261 261 261 262 262 263 263 263 263 264 264 265 266 266 267 267 268 268 268 268 267
300 300 299 299 299 299 298 298 297 296 296 295 295 294 293 293 292 291 289 288 286 285 283 282 280 279 277 276 276 275 275 276 276 276 276 276 275 274 273 272 272 270 269 268 266 266 265 265 265 266 266 266 266 266 265 264 264 263 263 262 262 262 261 261 261 261 262 262 262 263 263 263 263 263 263 264 265 266 266 266 267 267 267 267 266
300 300 300 300 300 299 299 298 297 297 296 296 295 295 294 294 293 293 292 291 290 289 288 286 285 283 282 280 279 278 277 277 277 278 278 278 278 277 276 274 273 272 271 270 269 269 268 268 267 266 266 265 264 264 263 263 263 263 263 263 263 263 263 262 262 262 262 263 263 263 263 264 263 263 264 264 265 265 266 266 267 267 267 268 267
302 302 302 302 302 301 300 299 299 297 297 296 295 295 294 294 293 293 292 292 291 290 290 289 288 287 285 284 283 281 280 279 278 278 278 278 278 278 277 276 274 273 272 272 273 272 272 270 268 266 265 264 263 263 263 263 263 263 263 263 263 264 264 264 264 264 263 264 264 264 264 265 265 265 265 266 266 266 266 266 267 268 268 268 268
305 304 304 303 303 302 301 300 298 298 297 296 295 295 294 294 293 292 292 292 291 290 290 289 289 288 287 286 285 284 283 282 280 279 277 276 276 276 276 275 275 275 275 275 275 273 272 270 268 267 266 265 264 263 263 262 262 263 263 263 263 264 264 265 265 266 265 265 265 265 265 266 267 267 267 268 268 268 268 267 267 268 268 268 268
305 304 304 303 302 301 300 299 298 298 297 296 296 295 294 293 293 292 292 291 291 290 290 289 289 288 288 287 286 285 285 283 282 280 278 276 275 273 273 274 275 276 277 276 275 273 272 270 269 268 267 266 265 265 264 263 262 262 263 263 263 263 264 264 264 265 266 266 266 266 266 266 267 268 267 268 269 269 268 268 267 267 267 267 267
304 304 304 303 302 301 300 299 299 298 297 296 296 295 294 293 293 292 291 291 290 290 289 289 288 287 287 286 285 285 284 283 282 280 279 277 275 273 273 274 274 275 274 274 274 273 272 271 270 269 268 267 266 266 265 264 263 263 263 263 263 263 263 263 263 263 264 265 266 267 267 267 268 269 268 267 267 268 268 268 268 268 269 269 269
303 303 303 302 301 301 300 299 299 298 297 297 296 295 294 293 292 291 290 290 289 288 288 287 286 286 285 284 284 283 283 282 281 280 279 277 276 274 274 274 273 273 273 272 272 272 272 272 272 271 270 269 268 267 267 266 265 264 264 263 263 263 263 263 263 263 263 264 265 266 266 267 267 268 268 267 268 269 270 270 270 271 271 271 271
304 304 303 302 302 302 301 300 299 298 298 297 296 295 294 293 292 291 290 289 288 287 286 286 285 285 284 283 283 282 281 280 280 279 278 277 276 275 274 274 273 272 272 271 271 271 271 272 272 272 271 270 269 269 269 269 268 266 265 264 263 263 263 262 262 262 262 263 264 265 266 266 267 268 269 270 270 271 272 272 271 271 271 272 272
305 304 304 303 303 302 301 300 299 298 298 297 296 295 294 293 292 292 291 290 289 288 287 286 285 285 284 283 282 282 281 280 279 278 277 276 275 275 274 273 272 272 271 270 269 269 270 270 270 270 270 270 270 270 270 269 268 266 265 264 263 263 263 262 262 262 263 263 264 265 265 266 266 267 268 268 269 270 271 271 271 271 271 271 271
304 304 303 303 302 301 301 300 299 299 298 298 297 296 295 294 293 292 292 291 290 289 288 287 286 285 285 284 283 283 282 280 279 278 277 276 275 275 274 273 272 271 270 269 269 269 269 268 268 268 269 269 269 269 268 268 267 266 265 265 265 264 263 263 264 264 265 265 265 265 265 265 265 266 266 267 267 268 268 268 269 269 270 269 269
304 304 303 303 302 302 301 300 300 299 299 298 297 297 296 295 294 294 293 292 291 290 290 289 288 287 286 285 284 283 282 281 280 279 278 277 276 275 273 272 272 271 271 270 270 269 267 267 267 268 269 269 268 267 267 267 266 265 265 265 263 263 264 265 266 267 267 267 267 267 267 267 268 268 267 267 266 265 265 265 266 266 266 266 267
306 305 304 304 303 303 303 302 302 301 300 300 299 298 297 296 296 295 294 293 292 291 290 289 288 287 286 286 285 284 282 281 280 278 277 276 275 274 273 272 272 271 271 270 270 269 269 269 268 268 268 268 268 266 264 262 263 263 263 261 260 263 266 268 269 269 270 271 271 271 271 271 269 268 267 265 264 263 263 263 263 262 262 264 266
308 307 306 306 305 305 304 303 302 302 301 300 299 299 298 297 296 295 294 293 292 291 290 289 288 287 286 285 284 283 282 281 279 278 276 275 273 272 272 272 271 271 271 271 272 273 273 273 272 271 270 269 267 265 262 261 262 262 260 258 260 264 267 269 270 272 273 273 274 274 274 273 271 269 268 266 265 265 265 264 263 262 261 262 263
309 308 307 306 306 305 304 303 302 302 301 300 299 299 298 297 296 295 294 293 292 290 289 288 287 286 285 284 283 282 281 280 278 277 275 274 272 270 270 270 270 270 271 273 274 275 275 275 275 273 271 269 267 264 263 263 263 261 259 259 262 265 267 268 270 271 272 274 275 275 275 274 274 273 271 271 270 269 268 266 265 264 262 261 261
308 307 307 306 306 305 304 304 303 303 302 301 300 299 298 298 297 296 294 293 291 290 289 288 287 286 285 283 282 280 279 277 276 276 274 273 271 268 266 267 268 269 269 271 272 273 273 272 271 270 268 266 264 263 263 264 263 261 260 260 261 263 264 265 268 269 272 274 275 275 275 276 276 276 275 275 274 272 270 269 267 266 264 263 261
308 308 308 307 307 306 306 305 305 304 303 302 301 301 300 299 297 296 295 293 292 290 289 288 287 286 285 283 281 279 277 276 275 274 273 272 270 268 266 265 265 266 267 268 269 269 270 269 269 269 267 265 263 262 263 263 263 263 263 262 262 263 264 266 269 271 273 274 274 274 275 276 277 278 278 277 276 275 273 271 269 268 266 264 262
309 310 310 309 308 308 307 307 306 305 305 304 303 302 301 300 299 298 296 294 293 292 290 289 288 287 285 283 281 279 277 276 275 274 273 272 270 268 266 266 265 264 265 265 266 266 267 267 267 268 268 267 265 264 263 263 263 264 264 265 265 267 268 270 271 272 272 273 273 274 276 277 277 277 277 277 276 276 275 274 272 270 268 266 265
312 312 311 310 310 310 309 309 308 307 306 305 305 304 303 301 300 298 297 295 294 292 291 290 289 287 285 282 280 279 278 277 276 275 273 272 270 268 267 266 265 263 262 262 263 264 264 265 265 266 267 267 267 267 266 265 264 263 264 265 266 268 270 271 271 271 272 272 273 274 276 276 276 275 275 275 275 276 276 276 274 272 271 269 267
314 314 313 312 312 312 311 311 310 309 308 308 307 306 305 303 302 300 298 297 295 294 292 291 289 286 284 282 281 280 279 278 277 275 274 273 273 271 267 264 262 261 261 261 261 261 262 263 263 264 265 266 267 268 268 267 266 266 266 266 268 269 270 270 270 271 272 273 274 275 275 275 274 275 275 276 277 277 276 276 275 275 274 272 271
317 316 315 315 315 314 314 313 313 312 312 312 311 310 309 307 305 303 300 299 297 295 294 292 289 287 285 284 283 282 281 280 278 277 276 273 270 267 264 262 261 261 262 262 261 260 261 262 262 263 264 265 267 268 268 267 267 267 268 269 270 270 270 271 271 272 273 275 276 277 276 276 277 278 279 279 279 279 279 278 277 277 276 276 275
319 318 318 318 317 317 317 317 317 317 316 316 315 315 313 312 309 306 303 301 298 296 294 292 291 289 288 286 285 284 284 284 282 279 274 270 267 267 266 264 262 262 262 261 260 260 261 263 264 265 266 266 265 265 264 265 266 266 268 270 271 272 272 273 274 275 276 278 278 278 278 280 281 281 281 281 282 282 282 281 280 279 278 278 277
321 321 321 321 321 321 321 321 321 321 321 321 320 319 318 317 314 311 307 304 301 297 294 292 290 289 288 288 288 287 287 286 284 281 278 276 275 271 266 262 259 257 257 257 258 261 264 266 267 267 267 265 263 261 260 261 263 265 267 269 271 272 273 273 275 277 278 279 278 279 281 282 282 281 282 283 283 284 283 282 281 280 279 279 278
325 324 325 325 325 325 325 325 326 326 326 326 325 325 323 322 321 318 314 309 305 301 296 293 291 290 290 290 290 289 288 286 284 284 284 283 278 271 265 262 258 255 256 258 261 264 266 268 269 269 267 265 262 261 261 261 262 265 267 268 268 269 271 272 274 276 278 278 279 279 280 281 282 282 283 284 285 285 284 282 281 280 279 279 278
328 328 328 329 329 329 329 330 330 330 330 330 331 331 330 329 328 327 324 318 312 306 302 299 297 295 293 292 291 289 289 288 287 286 285 282 277 274 272 269 263 260 262 265 268 270 271 273 273 272 269 265 263 262 263 263 265 266 267 267 266 267 269 272 274 276 277 278 278 279 279 280 281 282 284 285 286 286 285 282 280 279 278 277 275
333 332 332 332 333 334 334 334 334 335 335 335 336 336 337 336 335 335 334 332 325 314 307 305 304 303 301 298 295 293 292 291 289 288 286 283 280 279 278 273 268 267 268 269 271 273 274 275 274 271 268 264 263 263 264 265 266 267 267 267 267 268 269 272 274 276 277 277 277 278 278 279 281 282 283 285 286 286 285 282 280 278 276 274 272
336 336 336 336 337 338 338 338 339 339 340 340 341 341 341 341 341 340 339 339 338 331 320 312 309 308 307 304 301 298 295 293 292 292 289 286 284 284 282 276 271 270 269 268 268 269 269 268 268 266 265 264 265 266 266 266 266 266 266 267 269 271 272 274 275 277 277 277 277 278 279 281 282 283 284 285 286 285 283 281 280 278 274 271 270
341 341 341 341 342 342 342 343 344 344 345 345 346 346 345 345 345 344 344 343 342 341 336 329 321 315 313 312 309 304 299 297 296 295 292 290 289 288 285 281 276 273 271 269 268 266 266 266 266 266 266 266 267 266 266 265 265 265 267 268 270 271 273 274 276 276 277 277 279 279 280 281 282 283 285 287 285 282 279 278 277 275 272 270 270
344 344 345 346 346 347 348 348 349 349 350 351 351 352 351 350 349 349 348 347 347 346 344 341 337 329 322 321 321 317 311 306 305 303 299 296 296 295 291 287 282 277 272 270 267 266 267 268 269 269 268 267 265 264 263 263 264 265 267 269 270 271 272 273 274 276 277 278 279 280 281 282 283 284 285 285 283 280 278 276 272 268 267 268 269
346 347 349 349 349 351 353 353 353 354 355 355 356 356 357 357 357 356 355 354 354 355 353 351 351 347 338 331 328 326 323 320 318 317 312 307 304 302 298 294 288 281 276 273 270 268 268 269 270 270 269 266 265 264 265 265 266 266 267 269 271 272 274 274 276 277 278 279 279 280 282 283 284 284 284 283 281 279 278 275 268 262 262 265 267
348 349 350 351 352 355 356 356 358 359 359 359 0 1 2 3 3 3 3 2 3 4 4 2 1 360 357 351 343 337 335 333 331 330 327 322 318 313 308 303 296 290 284 279 275 273 272 271 271 270 268 267 267 267 267 267 267 268 270 272 274 276 277 278 279 280 281 281 281 281 282 283 284 284 284 283 280 277 273 269 264 260 260 263 267
351 352 353 354 356 357 357 359 1 2 2 3 5 5 6 8 9 8 8 8 9 10 11 10 9 7 7 6 1 353 349 347 346 346 343 338 336 332 324 316 307 299 294 289 286 283 280 276 274 272 271 271 270 269 269 269 270 273 275 277 278 279 280 282 283 283 283 283 283 283 283 283 284 284 283 282 280 275 269 262 259 258 259 261 265
355 356 357 359 360 359 360 2 4 4 5 6 7 8 9 10 12 13 13 13 14 15 15 16 16 16 15 15 13 11 8 4 3 2 359 355 352 348 344 338 329 320 314 308 301 297 291 287 285 282 278 276 274 273 274 275 277 279 280 281 282 283 283 285 286 286 286 285 285 284 284 283 282 282 281 280 278 271 262 256 255 257 260 261 262
2 3 4 5 5 5 5 7 8 9 10 10 10 10 12 13 14 16 16 17 17 18 18 19 20 20 20 20 19 19 18 16 14 12 10 7 5 1 358 357 353 347 342 336 328 322 316 310 305 300 293 289 286 284 284 286 286 286 287 287 288 289 289 290 290 289 288 287 285 284 283 281 280 278 277 276 273 265 256 252 254 256 259 262 262
11 12 13 12 13 14 14 15 15 16 17 17 17 17 18 18 19 20 21 21 22 22 22 22 23 23 24 24 24 24 24 24 23 22 21 20 20 18 17 17 15 13 10 6 1 355 349 345 342 334 320 310 305 300 299 299 298 297 297 297 298 298 297 296 296 294 292 290 287 284 282 280 277 275 274 272 267 257 250 250 253 256 259 262 264
18 20 20 20 21 22 22 23 23 23 23 24 25 26 26 26 27 27 28 28 29 29 30 30 30 31 31 31 31 32 32 32 32 32 31 31 30 29 29 27 26 25 23 20 16 12 5 360 356 350 340 330 323 318 317 315 313 312 312 311 311 312 311 309 307 304 300 296 292 288 285 281 277 274 271 267 259 251 249 251 254 258 261 264 266
23 23 24 25 26 27 27 28 28 29 29 29 30 30 31 32 33 33 34 34 34 35 35 36 36 36 36 36 36 36 36 35 35 35 34 33 33 32 30 29 27 25 24 22 19 16 11 7 4 360 356 353 348 344 343 342 338 335 333 330 330 332 333 332 330 326 320 314 308 301 294 287 280 275 269 261 253 250 253 257 259 261 263 267 270
25 25 26 27 27 28 29 30 30 30 31 31 31 32 33 33 34 35 35 35 36 36 36 36 36 36 36 36 36 36 35 35 35 34 33 33 33 32 32 31 30 29 28 27 26 24 22 20 18 16 15 13 12 9 7 5 1 358 355 351 349 350 350 351 352 351 348 345 339 329 320 309 296 283 270 260 257 258 262 265 268 270 272 274 278
25 25 26 26 27 28 28 29 29 30 30 31 31 32 32 33 33 34 34 35 35 36 36 37 37 37 38 38 38 38 37 37 38 37 37 38 38 38 39 39 39 38 38 37 36 35 34 31 29 27 25 23 21 18 16 14 12 9 7 4 1 359 358 359 360 1 2 4 2 359 356 351 339 323 304 286 278 277 276 276 279 283 284 286 288
24 25 26 27 28 29 30 30 31 32 32 33 34 34 35 36 37 37 37 38 38 38 39 40 40 40 41 41 41 42 42 42 43 43 43 43 42 43 42 42 42 42 41 40 39 38 36 34 32 30 27 24 22 20 18 17 15 13 11 8 6 4 2 2 2 2 1 1 1 360 357 354 347 337 322 307 296 293 289 287 287 290 292 293 294
27 28 29 31 32 33 34 35 35 36 36 37 37 38 38 38 39 39 39 39 40 40 40 40 40 40 40 40 40 41 41 41 41 41 41 41 41 41 40 40 40 39 38 36 36 34 33 31 29 27 25 23 20 18 16 14 12 10 9 7 5 4 3 2 2 1 360 358 357 355 352 347 342 335 326 317 308 302 297 295 294 296 298 299 300
32 32 33 34 35 35 36 36 37 37 37 37 37 37 37 37 37 37 37 37 36 37 37 37 37 37 37 37 37 37 37 37 37 37 36 36 36 36 36 36 35 35 34 33 32 31 30 28 27 25 23 21 19 17 15 12 10 8 7 5 4 2 1 360 359 359 358 358 357 356 354 351 347 342 337 329 322 316 311 307 307 308 308 308 308
33 33 33 34 34 35 35 35 35 35 35 34 34 34 33 33 33 33 33 33 33 33 33 33 33 34 34 35 35 35 35 35 35 34 34 34 34 34 33 33 33 32 32 31 31 30 29 28 27 25 24 22 20 19 16 14 12 10 7 5 3 1 359 358 358 358 358 358 358 357 356 355 352 349 347 342 335 330 328 324 321 321 320 319 319